Location: Bohy
(49.9380°N, 13.5753°E)
Time: 05:45:22
(UTC+00:00)

Cosmos 1680 Rocket - Pass Details

Date: 19 May 2025
Orbit: 757 x 776 km, 74.1° (Epoch: 14 June)

Event Time Altitude Azimuth Distance (km) Brightness Sun altitude
Exits shadow 22:39:27 30° 130° (SE) 1,348 4.4 -19.9°
Maximum altitude 22:40:42 34° 102° (ESE) 1,244 4.4 -19.9°
Drops below altitude 10° 22:45:22 10° 39° (NE) 2,305 6.6 -20.0°
Sets 22:47:54 0° 31° (NNE) 3,232 7.7 -20.0°
